WXM80 ListenWXM80 Stop

You find our weather info also at:

UK Metoffice

WeatherCloud

Weather Underground

Northeastern Weather Network

AWEKAS

Citizen Weather Observer Program (CWOP)

HAMweather, WeatherForYou, PWS Weather


Weather Underground History page Text

Daily Summary for October 15, 2017 Units:  Metric    English   Both
« Previous Day
Next Day »
Daily Weekly Monthly Yearly Custom
  High: Low: Average:
Temperature: 23.8 °C 18.9 °C 20.3 °C
Dew Point: 20.6 °C 17.9 °C 18.8 °C
Humidity: 97 % 80 % 91 %
Wind Speed: 10.9 km/h 0 km/h 2.1 km/h
Wind Gust: 18.5 km/h - -
Wind:- - SW
Pressure: 1020.5 hPa 1007 hPa -
Precipitation: 0 mm    
Historical Graphs
 
 
Tabular Data for October 15, 2017
Time Temperature Dew Point Pressure Wind Wind Speed Wind Gust Humidity Rainfall Rate (Hourly)
00:02 19.3 °C 18.5 °C 1019.5 hPa Calm   1.6 km/h 95 % 0 mm
00:07 19.3 °C 18.5 °C 1020.5 hPa Calm     95 % 0 mm
00:12 19.3 °C 18.5 °C 1020.5 hPa Calm     95 % 0 mm
00:18 19.3 °C 18.5 °C 1020.5 hPa Calm     95 % 0 mm
00:20 19.3 °C 18.5 °C 1019.5 hPa Calm     95 % 0 mm
00:25 19.3 °C 18.5 °C 1020.2 hPa Calm     95 % 0 mm
00:30 19.3 °C 18.5 °C 1020.2 hPa Calm     95 % 0 mm
00:35 19.3 °C 18.5 °C 1020.2 hPa Calm     95 % 0 mm
00:41 19.3 °C 18.5 °C 1020.2 hPa Calm     95 % 0 mm
00:46 19.3 °C 18.5 °C 1019.9 hPa Calm     95 % 0 mm
00:51 19.3 °C 18.4 °C 1019.9 hPa Calm     95 % 0 mm
00:56 19.3 °C 18.4 °C 1019.2 hPa Calm     95 % 0 mm
01:01 19.3 °C 18.4 °C 1019.2 hPa Calm     95 % 0 mm
01:06 19.2 °C 18.2 °C 1019.2 hPa Calm     94 % 0 mm
01:11 19.3 °C 18.3 °C 1019.9 hPa Calm     94 % 0 mm
01:16 19.2 °C 18.2 °C 1018.8 hPa Calm     94 % 0 mm
01:21 19.2 °C 18.2 °C 1019.2 hPa Calm     94 % 0 mm
01:26 19.2 °C 18.2 °C 1019.2 hPa Calm     94 % 0 mm
01:31 19.2 °C 18.2 °C 1019.2 hPa Calm     94 % 0 mm
01:36 19.2 °C 18.2 °C 1018.8 hPa Calm     94 % 0 mm
01:40 19.2 °C 18.3 °C 1018.8 hPa Calm     95 % 0 mm
01:45 19.2 °C 18.3 °C 1018.8 hPa Calm     95 % 0 mm
01:51 19.2 °C 18.3 °C 1018.8 hPa Calm     95 % 0 mm
01:56 19.2 °C 18.3 °C 1018.8 hPa Calm     95 % 0 mm
02:01 19.2 °C 18.3 °C 1018.5 hPa Calm   3.7 km/h 95 % 0 mm
02:05 19.1 °C 18.3 °C 1018.8 hPa Calm     95 % 0 mm
02:11 19.1 °C 18.3 °C 1018.8 hPa Calm   3.2 km/h 95 % 0 mm
02:16 19.1 °C 18.3 °C 1018.8 hPa Calm     95 % 0 mm
02:20 19.1 °C 18.3 °C 1018.8 hPa Calm     95 % 0 mm
02:26 19.1 °C 18.2 °C 1018.8 hPa Calm     95 % 0 mm
02:31 19.1 °C 18.2 °C 1018.8 hPa Calm   1.6 km/h 95 % 0 mm
02:36 19.1 °C 18.3 °C 1018.8 hPa Calm   1.6 km/h 95 % 0 mm
02:41 19.1 °C 18.2 °C 1018.5 hPa Calm   1.6 km/h 95 % 0 mm
02:46 19.1 °C 18.2 °C 1018.5 hPa Calm   1.6 km/h 95 % 0 mm
02:51 19.1 °C 18.2 °C 1018.5 hPa Calm   1.6 km/h 95 % 0 mm
02:55 19.1 °C 18.2 °C 1018.5 hPa Calm     95 % 0 mm
03:00 19.1 °C 18.2 °C 1018.2 hPa Calm     95 % 0 mm
03:05 19.1 °C 18.2 °C 1018.2 hPa Calm     95 % 0 mm
03:10 19.1 °C 18.2 °C 1018.2 hPa Calm   1.9 km/h 95 % 0 mm
03:15 19.1 °C 18.2 °C 1018.2 hPa Calm     95 % 0 mm
03:20 19.1 °C 18.2 °C 1018.2 hPa Calm     95 % 0 mm
03:25 19.1 °C 18.2 °C 1018.2 hPa WSW 0.2 km/h 1.9 km/h 95 % 0 mm
03:30 19.1 °C 18.2 °C 1017.8 hPa Calm   1.9 km/h 95 % 0 mm
03:35 19.1 °C 18.2 °C 1017.8 hPa Calm     95 % 0 mm
03:41 19.1 °C 18.2 °C 1017.8 hPa Calm     95 % 0 mm
03:45 19.1 °C 18.2 °C 1017.8 hPa Calm   1.6 km/h 95 % 0 mm
03:50 19.1 °C 18.2 °C 1017.8 hPa Calm     95 % 0 mm
03:55 19.1 °C 18.2 °C 1017.8 hPa Calm     95 % 0 mm
03:58 19 °C 18.2 °C 1017.8 hPa Calm     95 % 0 mm
04:01 19 °C 18.2 °C 1017.5 hPa Calm     95 % 0 mm
04:06 19 °C 18.2 °C 1017.8 hPa Calm     95 % 0 mm
04:11 19 °C 18.2 °C 1017.5 hPa Calm     95 % 0 mm
04:16 19 °C 18.2 °C 1017.5 hPa Calm     95 % 0 mm
04:21 19 °C 18.2 °C 1017.5 hPa Calm     95 % 0 mm
04:26 19 °C 18.2 °C 1018.5 hPa Calm     95 % 0 mm
04:31 19 °C 18.2 °C 1018.5 hPa Calm     95 % 0 mm
04:36 18.9 °C 18.1 °C 1017.5 hPa Calm     95 % 0 mm
04:41 18.9 °C 18.1 °C 1017.2 hPa Calm     95 % 0 mm
04:46 18.9 °C 18.1 °C 1017.5 hPa Calm     95 % 0 mm
04:48 18.9 °C 18.1 °C 1017.5 hPa Calm     95 % 0 mm
04:53 18.9 °C 18.1 °C 1018.2 hPa Calm     95 % 0 mm
04:58 18.9 °C 18.1 °C 1018.5 hPa Calm     95 % 0 mm
05:03 18.9 °C 18.1 °C 1018.2 hPa Calm     95 % 0 mm
05:08 18.9 °C 18.1 °C 1017.2 hPa Calm     95 % 0 mm
05:13 18.9 °C 18.1 °C 1018.2 hPa Calm     95 % 0 mm
05:18 18.9 °C 18.3 °C 1017.2 hPa Calm     96 % 0 mm
05:23 18.9 °C 18.3 °C 1017.5 hPa Calm     96 % 0 mm
05:28 18.9 °C 18.3 °C 1017.5 hPa Calm     96 % 0 mm
05:33 18.9 °C 18.3 °C 1017.2 hPa Calm     96 % 0 mm
05:38 18.9 °C 18.1 °C 1017.5 hPa Calm     95 % 0 mm
05:43 18.9 °C 18.3 °C 1017.5 hPa Calm     96 % 0 mm
05:48 18.9 °C 18.3 °C 1017.2 hPa Calm     96 % 0 mm
05:53 18.9 °C 18.2 °C 1017.2 hPa Calm     96 % 0 mm
05:59 18.9 °C 18.3 °C 1017.2 hPa Calm     96 % 0 mm
06:04 18.9 °C 18.3 °C 1016.8 hPa Calm     96 % 0 mm
06:09 18.9 °C 18.3 °C 1016.8 hPa Calm     96 % 0 mm
06:14 18.9 °C 18.3 °C 1016.8 hPa Calm     96 % 0 mm
06:19 18.9 °C 18.3 °C 1016.5 hPa Calm     96 % 0 mm
06:24 18.9 °C 18.3 °C 1016.5 hPa Calm     96 % 0 mm
06:29 18.9 °C 18.3 °C 1016.5 hPa Calm     96 % 0 mm
06:34 18.9 °C 18.3 °C 1016.5 hPa Calm     96 % 0 mm
06:39 18.9 °C 18.3 °C 1016.5 hPa Calm     96 % 0 mm
06:44 18.9 °C 18.3 °C 1016.5 hPa Calm     96 % 0 mm
06:49 18.9 °C 18.3 °C 1016.5 hPa Calm     96 % 0 mm
06:54 18.9 °C 18.3 °C 1016.5 hPa Calm     96 % 0 mm
06:59 18.9 °C 18.3 °C 1016.5 hPa Calm     96 % 0 mm
07:04 18.9 °C 18.3 °C 1016.5 hPa Calm     96 % 0 mm
07:09 18.9 °C 18.3 °C 1016.5 hPa Calm   1.9 km/h 96 % 0 mm
07:15 18.9 °C 18.3 °C 1016.5 hPa Calm     96 % 0 mm
07:20 18.9 °C 18.3 °C 1016.1 hPa Calm     96 % 0 mm
07:25 18.9 °C 18.3 °C 1016.1 hPa Calm     96 % 0 mm
07:30 18.9 °C 18.3 °C 1016.1 hPa Calm     96 % 0 mm
07:35 18.9 °C 18.3 °C 1016.1 hPa Calm     96 % 0 mm
07:40 18.9 °C 18.3 °C 1016.5 hPa Calm     96 % 0 mm
07:45 19 °C 18.3 °C 1016.5 hPa Calm     96 % 0 mm
07:50 19 °C 18.3 °C 1016.1 hPa Calm     96 % 0 mm
07:55 19 °C 18.3 °C 1016.5 hPa Calm     96 % 0 mm
08:00 19 °C 18.3 °C 1016.5 hPa Calm     96 % 0 mm
08:05 19.1 °C 18.4 °C 1016.5 hPa Calm     96 % 0 mm
08:10 19.1 °C 18.4 °C 1016.5 hPa Calm     96 % 0 mm
08:15 19.1 °C 18.6 °C 1016.5 hPa Calm     97 % 0 mm
08:20 19.1 °C 18.6 °C 1016.1 hPa Calm     97 % 0 mm
08:25 19.2 °C 18.7 °C 1016.1 hPa WSW 2.1 km/h 3.7 km/h 97 % 0 mm
08:31 19.2 °C 18.7 °C 1016.1 hPa Calm     97 % 0 mm
08:36 19.2 °C 18.7 °C 1016.5 hPa Calm   3.7 km/h 97 % 0 mm
08:41 19.3 °C 18.8 °C 1016.1 hPa Calm   1.6 km/h 97 % 0 mm
08:46 19.3 °C 18.8 °C 1016.1 hPa WSW 1.6 km/h 4.8 km/h 97 % 0 mm
08:51 19.3 °C 18.8 °C 1016.1 hPa Calm     97 % 0 mm
08:56 19.4 °C 18.9 °C 1016.1 hPa Calm   1.6 km/h 97 % 0 mm
09:01 19.4 °C 18.9 °C 1016.1 hPa WSW 0.3 km/h 1.9 km/h 97 % 0 mm
09:06 19.4 °C 18.9 °C 1016.1 hPa Calm   9.7 km/h 97 % 0 mm
09:11 19.5 °C 19 °C 1016.1 hPa SW 1.6 km/h 8 km/h 97 % 0 mm
09:16 19.6 °C 19.1 °C 1016.1 hPa SW 3.2 km/h 6.4 km/h 97 % 0 mm
09:21 19.6 °C 19.1 °C 1016.1 hPa Calm   4.8 km/h 97 % 0 mm
09:26 19.6 °C 19.1 °C 1016.1 hPa SSW 2.9 km/h 9.7 km/h 97 % 0 mm
09:31 19.7 °C 19.2 °C 1015.8 hPa Calm     97 % 0 mm
09:36 19.7 °C 19.2 °C 1016.1 hPa SW 0.2 km/h 3.7 km/h 97 % 0 mm
09:41 19.8 °C 19.3 °C 1015.8 hPa SW 2.4 km/h 5.6 km/h 97 % 0 mm
09:46 19.9 °C 19.4 °C 1015.8 hPa SW 1.1 km/h 4.8 km/h 97 % 0 mm
09:51 19.9 °C 19.4 °C 1015.8 hPa SW 1.1 km/h 5.6 km/h 97 % 0 mm
09:56 20 °C 19.5 °C 1015.5 hPa SW 2.1 km/h 5.6 km/h 97 % 0 mm
10:01 20.1 °C 19.6 °C 1015.5 hPa Calm     97 % 0 mm
10:06 20.1 °C 19.6 °C 1015.5 hPa West 1.3 km/h 5.6 km/h 97 % 0 mm
10:11 20.2 °C 19.7 °C 1015.5 hPa WSW 3.2 km/h 5.6 km/h 97 % 0 mm
10:16 20.2 °C 19.7 °C 1015.1 hPa WSW 0.6 km/h 3.2 km/h 97 % 0 mm
10:17 20.2 °C 19.7 °C 1015.1 hPa WSW 0.5 km/h 3.7 km/h 97 % 0 mm
10:22 20.2 °C 19.7 °C 1016.1 hPa SSW 3.9 km/h 7.4 km/h 97 % 0 mm
10:27 20.2 °C 19.7 °C 1015.5 hPa SW 0.3 km/h 5.6 km/h 97 % 0 mm
10:32 20.3 °C 19.8 °C 1015.1 hPa SE 2.4 km/h 5.6 km/h 97 % 0 mm
10:37 20.2 °C 19.7 °C 1015.1 hPa Calm   1.9 km/h 97 % 0 mm
10:42 20.3 °C 19.8 °C 1015.1 hPa Calm   3.7 km/h 97 % 0 mm
10:47 20.3 °C 19.8 °C 1015.1 hPa Calm   1.6 km/h 97 % 0 mm
10:52 20.4 °C 19.7 °C 1014.8 hPa SSE 0.8 km/h 4.8 km/h 96 % 0 mm
10:57 20.4 °C 19.7 °C 1014.8 hPa SSW 1 km/h 3.7 km/h 96 % 0 mm
11:02 20.4 °C 19.8 °C 1014.8 hPa SW 3.9 km/h 7.4 km/h 96 % 0 mm
11:07 20.5 °C 19.8 °C 1014.4 hPa SW 1 km/h 5.6 km/h 96 % 0 mm
11:12 20.6 °C 19.9 °C 1014.4 hPa SW 0.2 km/h 1.9 km/h 96 % 0 mm
11:17 20.6 °C 19.9 °C 1014.4 hPa SW 1.1 km/h 3.7 km/h 96 % 0 mm
11:22 20.7 °C 19.8 °C 1014.4 hPa South 0.8 km/h 5.6 km/h 95 % 0 mm
11:27 20.7 °C 19.9 °C 1014.4 hPa WSW 0.5 km/h 5.6 km/h 95 % 0 mm
11:32 20.8 °C 19.9 °C 1014.4 hPa SW 3.4 km/h 7.4 km/h 95 % 0 mm
11:37 20.8 °C 19.8 °C 1014.1 hPa West 2.3 km/h 2.3 km/h 94 % 0 mm
11:43 20.8 °C 19.8 °C 1014.4 hPa SW 0.8 km/h 5.6 km/h 94 % 0 mm
11:48 20.8 °C 19.6 °C 1014.1 hPa SSE 0.8 km/h 3.7 km/h 93 % 0 mm
11:53 20.8 °C 19.6 °C 1014.1 hPa SSW 2.4 km/h 9.3 km/h 93 % 0 mm
11:58 20.8 °C 19.6 °C 1014.1 hPa WSW 1.9 km/h 4.8 km/h 93 % 0 mm
12:03 20.8 °C 19.7 °C 1014.1 hPa SW 8.2 km/h 13 km/h 93 % 0 mm
12:08 20.8 °C 19.5 °C 1014.1 hPa SW 10 km/h 12.9 km/h 92 % 0 mm
12:13 20.9 °C 19.6 °C 1013.8 hPa WSW 6.8 km/h 14.8 km/h 92 % 0 mm
12:18 20.9 °C 19.6 °C 1013.8 hPa NW 6 km/h 13 km/h 92 % 0 mm
12:23 20.9 °C 19.4 °C 1013.4 hPa SSE 3.5 km/h 13 km/h 91 % 0 mm
12:28 20.9 °C 19.4 °C 1013.4 hPa WSW 2.1 km/h 7.4 km/h 91 % 0 mm
12:33 21 °C 19.5 °C 1013.4 hPa SW 4.2 km/h 9.3 km/h 91 % 0 mm
12:38 21.1 °C 19.6 °C 1013.4 hPa SSW 8.4 km/h 14.8 km/h 91 % 0 mm
12:43 21.1 °C 19.6 °C 1013.4 hPa SSW 6.1 km/h 11.1 km/h 91 % 0 mm
12:48 21.2 °C 19.6 °C 1013.1 hPa WSW 1.6 km/h 5.6 km/h 91 % 0 mm
12:53 21.2 °C 19.7 °C 1013.1 hPa SW 6.6 km/h 18.5 km/h 91 % 0 mm
12:58 21.3 °C 19.7 °C 1013.1 hPa WSW 3.4 km/h 3.7 km/h 91 % 0 mm
13:03 21.3 °C 19.8 °C 1013.1 hPa Calm   3.7 km/h 91 % 0 mm
13:08 21.4 °C 20.1 °C 1012.8 hPa West 1.8 km/h 1.8 km/h 92 % 0 mm
13:13 21.5 °C 19.9 °C 1012.4 hPa SW 1.9 km/h 5.6 km/h 91 % 0 mm
13:19 21.6 °C 20.1 °C 1012.4 hPa SSW 3.7 km/h 8 km/h 91 % 0 mm
13:24 21.7 °C 20.2 °C 1012.4 hPa WSW 6.4 km/h 9.7 km/h 91 % 0 mm
13:29 21.8 °C 20.1 °C 1012.4 hPa SW 1.9 km/h 5.6 km/h 90 % 0 mm
13:34 21.8 °C 20.1 °C 1012.1 hPa Calm     90 % 0 mm
13:39 21.9 °C 20.1 °C 1012.1 hPa West 4 km/h 11.1 km/h 89 % 0 mm
13:43 22 °C 20.1 °C 1012.1 hPa WSW 6.1 km/h 11.1 km/h 89 % 0 mm
13:49 22.1 °C 20.2 °C 1011.7 hPa SSW 10.1 km/h 11.3 km/h 89 % 0 mm
13:54 22.2 °C 20.1 °C 1011.7 hPa South 8.2 km/h 13 km/h 88 % 0 mm
13:59 22.2 °C 20.1 °C 1011.4 hPa SSW 3.2 km/h 8 km/h 88 % 0 mm
14:04 22.3 °C 20.2 °C 1011.4 hPa SSW 4.7 km/h 8 km/h 88 % 0 mm
14:09 22.5 °C 20.4 °C 1011.1 hPa South 4 km/h 7.4 km/h 88 % 0 mm
14:14 22.8 °C 20.5 °C 1011.1 hPa ESE 4.8 km/h 11.1 km/h 87 % 0 mm
14:19 22.9 °C 20.5 °C 1011.1 hPa SW 3.5 km/h 7.4 km/h 86 % 0 mm
14:24 23.2 °C 20.6 °C 1011.1 hPa SSW 9.2 km/h 16.7 km/h 85 % 0 mm
14:29 23.4 °C 20.6 °C 1011.1 hPa SW 3.1 km/h 11.3 km/h 84 % 0 mm
14:34 23.6 °C 20.5 °C 1011.1 hPa South 1.1 km/h 1.9 km/h 83 % 0 mm
14:39 23.7 °C 20.4 °C 1011.1 hPa SSW 6.4 km/h 14.8 km/h 82 % 0 mm
14:44 23.8 °C 20.3 °C 1011.1 hPa WSW 1.8 km/h 7.4 km/h 81 % 0 mm
14:49 23.7 °C 20.1 °C 1011.4 hPa SW 6.9 km/h 9.3 km/h 80 % 0 mm
14:54 23.7 °C 20.3 °C 1011.1 hPa WSW 1.9 km/h 5.6 km/h 81 % 0 mm
14:59 23.7 °C 20 °C 1011.1 hPa SW 6.8 km/h 14.8 km/h 80 % 0 mm
15:04 23.6 °C 19.9 °C 1010.7 hPa WSW 5.8 km/h 9.3 km/h 80 % 0 mm
15:09 23.4 °C 20 °C 1010.7 hPa SSW 2.4 km/h 7.4 km/h 81 % 0 mm
15:14 23.4 °C 20 °C 1010.4 hPa SSE 3.1 km/h 5.6 km/h 81 % 0 mm
15:19 23.4 °C 20.2 °C 1010.4 hPa SSW 2.1 km/h 5.6 km/h 82 % 0 mm
15:24 23.3 °C 19.9 °C 1010.4 hPa SW 2.6 km/h 11.1 km/h 81 % 0 mm
15:29 23.3 °C 20.1 °C 1010.4 hPa WNW 1.1 km/h 3.7 km/h 82 % 0 mm
15:34 23.2 °C 20 °C 1010 hPa WSW 0.2 km/h 3.2 km/h 82 % 0 mm
15:39 23.2 °C 20 °C 1010 hPa WSW 1.9 km/h 9.3 km/h 82 % 0 mm
15:44 23.2 °C 20.2 °C 1010 hPa SSW 2.7 km/h 5.6 km/h 83 % 0 mm
15:49 23.2 °C 19.9 °C 1010 hPa SSE 0.5 km/h 3.7 km/h 82 % 0 mm
15:54 23.1 °C 20.1 °C 1010 hPa SSW 2.4 km/h 7.4 km/h 83 % 0 mm
15:59 23.1 °C 20 °C 1009.7 hPa SSW 2.3 km/h 6.4 km/h 83 % 0 mm
16:04 23.1 °C 20 °C 1010 hPa SSW 3.2 km/h 5.6 km/h 83 % 0 mm
16:09 23 °C 19.9 °C 1010.7 hPa SSW 1.9 km/h 11.1 km/h 83 % 0 mm
16:14 22.9 °C 19.9 °C 1010.7 hPa SSW 1.4 km/h 5.6 km/h 83 % 0 mm
16:19 22.9 °C 19.8 °C 1009.7 hPa SSW 0.5 km/h 7.4 km/h 83 % 0 mm
16:25 22.8 °C 19.8 °C 1010 hPa SSW 2.7 km/h 5.6 km/h 83 % 0 mm
16:30 22.8 °C 19.7 °C 1010.4 hPa South 5.6 km/h 13 km/h 83 % 0 mm
16:35 22.7 °C 19.7 °C 1009.4 hPa WSW 3.5 km/h 5.6 km/h 83 % 0 mm
16:40 22.7 °C 19.4 °C 1009.4 hPa SW 4.7 km/h 11.1 km/h 82 % 0 mm
16:45 22.6 °C 19.3 °C 1009 hPa SW 1.6 km/h 4.8 km/h 82 % 0 mm
16:50 22.5 °C 19.4 °C 1009.4 hPa SW 0.6 km/h 5.6 km/h 83 % 0 mm
16:55 22.4 °C 19.4 °C 1009.4 hPa South 7.2 km/h 13 km/h 83 % 0 mm
17:00 22.3 °C 19.1 °C 1009 hPa SW 3.2 km/h 14.8 km/h 82 % 0 mm
17:05 22.3 °C 19.1 °C 1009 hPa West 6.4 km/h 11.3 km/h 82 % 0 mm
17:10 22.2 °C 19 °C 1009 hPa SSW 3.7 km/h 8 km/h 82 % 0 mm
17:15 22.2 °C 18.9 °C 1009 hPa SSW 5.3 km/h 13 km/h 82 % 0 mm
17:20 22.1 °C 18.9 °C 1009.4 hPa SSW 5.8 km/h 11.1 km/h 82 % 0 mm
17:25 22.1 °C 18.8 °C 1010 hPa SW 9.7 km/h 18.5 km/h 82 % 0 mm
17:30 21.9 °C 18.7 °C 1009.4 hPa SSW 6.3 km/h 9.3 km/h 82 % 0 mm
17:35 21.9 °C 18.7 °C 1010 hPa SW 4 km/h 9.3 km/h 82 % 0 mm
17:40 21.9 °C 18.7 °C 1009.7 hPa SSW 7.1 km/h 16.7 km/h 82 % 0 mm
17:45 21.8 °C 18.6 °C 1010 hPa SSW 3.4 km/h 9.3 km/h 82 % 0 mm
17:51 21.8 °C 18.8 °C 1009.4 hPa SSW 3.7 km/h 6.4 km/h 83 % 0 mm
17:56 21.7 °C 18.7 °C 1009.7 hPa SSW 4.8 km/h 9.7 km/h 83 % 0 mm
18:01 21.7 °C 18.8 °C 1009.4 hPa South 2.4 km/h 5.6 km/h 84 % 0 mm
18:06 21.7 °C 18.8 °C 1010 hPa SSW 4.3 km/h 11.1 km/h 84 % 0 mm
18:11 21.6 °C 18.7 °C 1010 hPa SSW 6.4 km/h 9.3 km/h 84 % 0 mm
18:16 21.5 °C 18.7 °C 1009.4 hPa WSW 4.7 km/h 18.5 km/h 84 % 0 mm
18:21 21.4 °C 18.8 °C 1009 hPa SW 4.2 km/h 6.4 km/h 85 % 0 mm
18:26 21.4 °C 18.8 °C 1010 hPa South 8 km/h 11.1 km/h 85 % 0 mm
18:31 21.3 °C 18.7 °C 1009.4 hPa SW 5.1 km/h 13 km/h 85 % 0 mm
18:36 21.3 °C 18.7 °C 1009 hPa WSW 2.4 km/h 9.3 km/h 85 % 0 mm
18:41 21.2 °C 18.4 °C 1009 hPa WSW 2.3 km/h 6.4 km/h 84 % 0 mm
18:46 21.2 °C 18.3 °C 1009 hPa WSW 0.6 km/h 3.7 km/h 84 % 0 mm
18:51 21.2 °C 18.6 °C 1009 hPa WSW 1.1 km/h 3.2 km/h 85 % 0 mm
18:56 21.2 °C 18.6 °C 1009 hPa SW 4.8 km/h 9.3 km/h 85 % 0 mm
19:01 21.2 °C 18.6 °C 1008.7 hPa SW 3.9 km/h 5.6 km/h 85 % 0 mm
19:04 21.2 °C 18.7 °C 1009 hPa SW 0.8 km/h 5.6 km/h 86 % 0 mm
19:09 21.2 °C 18.7 °C 1009.4 hPa WSW 0.6 km/h 3.7 km/h 86 % 0 mm
19:14 21.1 °C 18.7 °C 1009 hPa SE 3.4 km/h 9.3 km/h 86 % 0 mm
19:19 21.1 °C 18.6 °C 1008.7 hPa WSW 3.2 km/h 7.4 km/h 86 % 0 mm
19:24 21 °C 18.6 °C 1008.7 hPa SW 5.5 km/h 11.1 km/h 86 % 0 mm
19:29 21 °C 18.6 °C 1008.7 hPa WSW 2.3 km/h 9.3 km/h 86 % 0 mm
19:34 20.9 °C 18.5 °C 1008.7 hPa SW 3.2 km/h 8 km/h 86 % 0 mm
19:39 20.9 °C 18.4 °C 1008.7 hPa SSW 5.3 km/h 9.3 km/h 86 % 0 mm
19:44 20.8 °C 18.4 °C 1008.7 hPa SW 0.5 km/h 5.6 km/h 86 % 0 mm
19:49 20.7 °C 18.5 °C 1008.4 hPa SSW 1.6 km/h 5.6 km/h 87 % 0 mm
19:55 20.7 °C 18.4 °C 1008.4 hPa SW 4.2 km/h 6.4 km/h 87 % 0 mm
20:00 20.6 °C 18.4 °C 1008 hPa SSW 1.4 km/h 7.4 km/h 87 % 0 mm
20:05 20.6 °C 18.5 °C 1008 hPa SSW 2.6 km/h 5.6 km/h 88 % 0 mm
20:10 20.5 °C 18.4 °C 1008.7 hPa SSW 0.6 km/h 3.7 km/h 88 % 0 mm
20:15 20.4 °C 18.4 °C 1007.7 hPa South 4.3 km/h 9.3 km/h 88 % 0 mm
20:20 20.3 °C 18.4 °C 1007.7 hPa SW 4.2 km/h 14.8 km/h 89 % 0 mm
20:25 20.3 °C 18.4 °C 1007.7 hPa SSW 4.2 km/h 11.3 km/h 89 % 0 mm
20:30 20.2 °C 18.3 °C 1007.3 hPa SW 6.9 km/h 13 km/h 89 % 0 mm
20:35 20.2 °C 18.3 °C 1007.3 hPa SSW 2.3 km/h 5.6 km/h 89 % 0 mm
20:40 20.1 °C 18.2 °C 1007.7 hPa SW 7.1 km/h 16.7 km/h 89 % 0 mm
20:45 20.1 °C 18.2 °C 1008.4 hPa SSW 6 km/h 14.8 km/h 89 % 0 mm
20:50 20 °C 18.1 °C 1007.7 hPa SW 2.3 km/h 5.6 km/h 89 % 0 mm
20:55 20 °C 18.1 °C 1007.7 hPa SSW 5 km/h 14.8 km/h 89 % 0 mm
21:00 20 °C 18.1 °C 1007.7 hPa East 2.3 km/h 13 km/h 89 % 0 mm
21:05 19.9 °C 18.1 °C 1007.7 hPa North 0.3 km/h 5.6 km/h 89 % 0 mm
21:10 19.9 °C 18.1 °C 1007.7 hPa SW 6.3 km/h 7.4 km/h 89 % 0 mm
21:15 19.9 °C 18.1 °C 1007.7 hPa SSW 7.7 km/h 16.7 km/h 89 % 0 mm
21:20 19.9 °C 17.9 °C 1007.7 hPa SW 5.6 km/h 12.9 km/h 88 % 0 mm
21:25 19.9 °C 17.9 °C 1007.7 hPa West 6.1 km/h 18.5 km/h 88 % 0 mm
21:30 20 °C 17.9 °C 1007.7 hPa WSW 4.7 km/h 5.6 km/h 88 % 0 mm
21:35 20 °C 17.9 °C 1007.7 hPa SW 0.6 km/h 7.4 km/h 88 % 0 mm
21:40 20 °C 17.9 °C 1007.7 hPa West 4.8 km/h 9.7 km/h 88 % 0 mm
21:45 20 °C 17.9 °C 1007.7 hPa NW 3.5 km/h 11.3 km/h 88 % 0 mm
21:50 20 °C 17.9 °C 1007.7 hPa SSW 1 km/h 7.4 km/h 88 % 0 mm
21:55 20 °C 17.9 °C 1007.7 hPa SW 8.7 km/h 14.8 km/h 88 % 0 mm
22:00 19.9 °C 18.1 °C 1008.4 hPa SSW 8.9 km/h 14.8 km/h 89 % 0 mm
22:05 19.9 °C 18.1 °C 1007.7 hPa WSW 2.9 km/h 9.3 km/h 89 % 0 mm
22:10 19.9 °C 18.1 °C 1007.7 hPa SW 4.5 km/h 7.4 km/h 89 % 0 mm
22:15 19.9 °C 18.1 °C 1007.7 hPa SW 2.6 km/h 9.3 km/h 89 % 0 mm
22:21 19.9 °C 18 °C 1007.7 hPa SW 4.3 km/h 9.3 km/h 89 % 0 mm
22:26 19.9 °C 18.2 °C 1007 hPa SSW 0.8 km/h 7.4 km/h 90 % 0 mm
22:31 19.9 °C 18.2 °C 1007 hPa SSW 4.2 km/h 13 km/h 90 % 0 mm
22:35 19.9 °C 18.4 °C 1007 hPa SSW 4 km/h 7.4 km/h 91 % 0 mm
22:41 19.8 °C 18.3 °C 1007.3 hPa SSW 5.1 km/h 8 km/h 91 % 0 mm
22:46 19.8 °C 18.3 °C 1007.3 hPa SW 3.2 km/h 11.3 km/h 91 % 0 mm
22:51 19.8 °C 18.5 °C 1008 hPa SW 3.2 km/h 8 km/h 92 % 0 mm
22:56 19.8 °C 18.5 °C 1007.7 hPa SSW 4.8 km/h 14.5 km/h 92 % 0 mm
23:01 19.9 °C 18.6 °C 1008 hPa SSE 1.8 km/h 11.1 km/h 92 % 0 mm
23:06 19.9 °C 18.6 °C 1008 hPa SSW 4.5 km/h 16.7 km/h 92 % 0 mm
23:11 19.9 °C 18.6 °C 1007.7 hPa SW 6.3 km/h 11.3 km/h 92 % 0 mm
23:16 19.9 °C 18.7 °C 1008 hPa WSW 6.1 km/h 9.3 km/h 93 % 0 mm
23:26 19.9 °C 18.7 °C 1008 hPa SSW 2.1 km/h 8 km/h 93 % 0 mm
23:31 19.9 °C 18.7 °C 1007.7 hPa SW 3.4 km/h 5.6 km/h 93 % 0 mm
23:36 19.9 °C 18.7 °C 1007.3 hPa SW 4.3 km/h 6.4 km/h 93 % 0 mm
23:41 19.9 °C 18.8 °C 1007.3 hPa SSW 4.3 km/h 9.3 km/h 93 % 0 mm
23:44 19.9 °C 18.8 °C 1007.3 hPa SW 0.8 km/h 5.6 km/h 93 % 0 mm
23:49 19.9 °C 18.8 °C 1007.3 hPa SW 3.1 km/h 5.6 km/h 93 % 0 mm
23:54 19.9 °C 18.8 °C 1007.7 hPa WSW 10.9 km/h 11.3 km/h 93 % 0 mm
23:59 19.9 °C 18.8 °C 1007.7 hPa SSW 4 km/h 9.7 km/h 93 % 0 mm
Crab Meadow Weather
Compliments of Weather Underground - 3 mb

Script developed by  Jim McMurry - jmcmurry@mwt.net Adapted for the template by  Wim van der Kuil - Leuven-Template.eu

Weather Terms: Outlook - A hazardous weather outlook is issued daily to indicate that a hazardous weather or hydrologic event may occur in the next several days. The outlook will include information about potential severe thunderstorms , heavy rain or flooding, winter weather, extremes of heat or cold, etc., that may develop over the next 7 days with an emphasis on the first 24 hours of the forecast. It is intended to provide information to those who need considerable lead time to prepare for the event.